Terminal Aerodrome Forecast
Issued by NWS

Home | Current Version | Previous Version | Text Only | Print | Product List | Glossary On
Versions: 1 2 3 4 5 6 7 8 9 10 11 12 13 14 15 16 17 18 19 20 21 22 23 24 25
000
FTUS42 KGSP 240802 AAC
TAFGMU
TAF AMD
KGMU 240802Z 2408/2506 06010KT 4SM -SHRA BR OVC004
     FM241700 03006KT 3SM -SHRA BR OVC007
     FM241900 01007KT 4SM BR VCSH OVC008
     FM242300 33006KT 6SM BR OVC015=

USA.gov is the U.S. government's official web portal to all federal, state and local government web resources and services.